Location: Julian California
(33.0790°N, 116.6010°W)
Time: 11:10:28
(UTC-07:00)

Cosmos 1953 - Pass Details

Date: 14 June 2018
Orbit: 539 x 559 km, 82.5° (Epoch: 16 October)

Event Time Altitude Azimuth Distance (km) Brightness Sun altitude
Rises 21:01:00 0° 5° (N) 2,697 6.3 -12.1°
Reaches altitude 10° 21:03:20 10° 15° (NNE) 1,802 5.3 -12.5°
Maximum altitude 21:06:54 32° 80° (E) 938 3.2 -13.0°
Enters shadow 21:08:42 22° 126° (SE) 1,217 3.4 -13.3°
